[[{"header":{"parameterUnit":"m.s-1","parameterCategory":1,"la1":30.2991,"la2":30.254,"lo1":-89.0895,"lo2":-89.0444,"dy":0.0017,"dx":0.0017,"nx":28,"ny":28,"refTime":"2025-08-27T03:00:00:Z","depth":0,"parameterNumber":2,"parameterNumberName":"U-component_of_WINDS"},"data":[0,0,0,0,0,0,0,0,0,0,0,0,0,0,0,0,0,0,0,0,0,0,0,0,0,0,0,0,0,0,0,0,0,0,0,0,0,0,0,0,0,0,0,0,0,0,0,0,0,0,0,0,0,0,0,0,0,0,0.0968,0.0969,0,0.1058,0.1059,0.106,0.1125,0.1126,0.1126,0.1127,0.1219,0.1221,0.1223,0,0,0,0,0,0,0,0,0,0,0,0,0,0.0852,0.0854,0.0968,0.0969,0.097,0.1058,0.1059,0.106,0.1125,0.1126,0.1126,0.1127,0.1219,0.1221,0.1223,0,0,0,0,0,0,0,0,0,0,0,0,0,0.0918,0.0854,0.0968,0.1013,0.1018,0.1058,0.1059,0.1061,0.1125,0.1126,0.1127,0.1127,0.1218,0.1221,0.1223,0.1225,0,0,0.1232,0.1234,0,0,0,0,0,0,0,0,0.0914,0.0922,0.1005,0.101,0.1016,0.1081,0.1052,0.1116,0.1125,0.1084,0.1127,0.1128,0.1173,0.1179,0.1194,0.123,0.1234,0.1233,0.1234,0.1236,0.1237,0,0,0,0,0,0,0,0.091,0.0919,0.1004,0.1006,0.1013,0.1029,0.1039,0.1065,0.1123,0.1088,0.1093,0.1103,0.1176,0.1191,0.1197,0.1235,0.1233,0.1235,0.1237,0.1238,0.1275,0.1275,0,0,0,0,0,0,0.0898,0.0915,0.1001,0.1006,0.0966,0.103,0.1042,0.1059,0.1123,0.1133,0.1102,0.1105,0.1186,0.1194,0.1201,0.1206,0.1236,0.1238,0.124,0.1276,0.1275,0.1274,0,0,0,0,0,0,0.0895,0.0905,0.0997,0.0962,0.0975,0.1031,0.1051,0.1061,0.1077,0.1133,0.1144,0.1107,0.1187,0.1196,0.1218,0.121,0.124,0.1242,0.1277,0.1276,0.1275,0.1217,0,0,0,0,0,0,0.0892,0.0904,0.0905,0.0961,0.0976,0.1013,0.105,0.1062,0.1081,0.1087,0.1141,0.1151,0.1188,0.1214,0.1221,0.1215,0.1245,0.1278,0.1276,0.1275,0.122,0.1214,0.1209,0,0,0,0,0,0.0887,0.0885,0.0905,0.0915,0.0979,0.1013,0.1021,0.1064,0.1081,0.1082,0.1118,0.1149,0.121,0.1215,0.1225,0.1219,0.1279,0.1277,0.1275,0.1222,0.1215,0.1209,0,0,0,0,0,0,0.0826,0.0893,0.0916,0.0932,0.0966,0.1024,0.1027,0.1055,0.1086,0.1089,0.1142,0.1153,0.117,0.1197,0.1202,0.1223,0.1248,0.1248,0.1205,0.1199,0.1193,0.1186,0.1247,0,0,0,0,0,0.0815,0.0836,0.0894,0.0903,0.0919,0.097,0.0986,0.1016,0.1054,0.1068,0.1106,0.1142,0.1169,0.1185,0.1214,0.1225,0.1237,0.1225,0.122,0.1215,0.1214,0.1221,0.1216,0.1269,0.1269,0.1269,0,0,0.0791,0.083,0.0841,0.0891,0.0921,0.0942,0.0981,0.1002,0.1018,0.1072,0.1094,0.1123,0.1166,0.1182,0.1192,0.1205,0.1202,0.1213,0.1208,0.121,0.1218,0.1213,0.1209,0.1267,0.1268,0.1268,0,0,0.0758,0.0791,0.0801,0.083,0.0875,0.0909,0.0911,0.0965,0.0986,0.101,0.105,0.107,0.1116,0.1144,0.1165,0.1143,0.1172,0.1151,0.1122,0.1128,0.1124,0.112,0.1111,0.1107,0.115,0.115,0.1149,0,0.0723,0.0756,0.0803,0.0821,0.0842,0.0891,0.0902,0.0928,0.098,0.0993,0.1008,0.1066,0.1098,0.1121,0.1116,0.1131,0.1135,0.1144,0.112,0.1118,0.1115,0.1107,0.1104,0.1147,0.1147,0.1147,0.1147,0,0.071,0.0732,0.0736,0.0784,0.0805,0.0819,0.0868,0.0884,0.0912,0.0944,0.0968,0.1008,0.1045,0.1053,0.1081,0.108,0.1087,0.1111,0.1136,0.1106,0.1099,0.1097,0.1142,0.1143,0.1144,0.1145,0,0,0.064,0.0714,0.0715,0.0737,0.079,0.0808,0.0825,0.0861,0.0873,0.0907,0.0922,0.0959,0.0981,0.1004,0.1036,0.1042,0.102,0.1065,0.1066,0.1054,0.102,0.1001,0.0997,0.104,0.104,0.104,0.1016,0,0.0615,0.0647,0.0689,0.0707,0.0728,0.0775,0.079,0.0823,0.0854,0.0876,0.0911,0.0936,0.0963,0.0977,0.0985,0.1021,0.1014,0.1024,0.1054,0.1054,0.104,0.0994,0.0974,0.0949,0.1014,0.1014,0.1013,0,0.0589,0.062,0.064,0.0691,0.0701,0.0713,0.0749,0.077,0.081,0.0832,0.0857,0.0892,0.0911,0.0935,0.0962,0.0968,0.0983,0.1002,0.1002,0.1006,0.1031,0.0994,0.0943,0.0939,0.101,0.101,0.101,0,0.0534,0.0582,0.0599,0.0617,0.0678,0.0685,0.071,0.0751,0.0769,0.0801,0.0814,0.0847,0.0865,0.089,0.0932,0.0946,0.0955,0.0982,0.0973,0.0971,0.0971,0.097,0.092,0.0983,0.0983,0.0983,0.0983,0,0.0501,0.051,0.0576,0.0586,0.0598,0.0647,0.0658,0.0688,0.0723,0.074,0.0784,0.0799,0.0855,0.0877,0.091,0.0927,0.0935,0.0953,0.0961,0.0948,0.0946,0.0958,0.096,0.0982,0.0983,0.0983,0.0983,0,0.0441,0.0486,0.0508,0.0563,0.0577,0.0584,0.0631,0.0643,0.0676,0.0697,0.0705,0.0757,0.0785,0.083,0.0871,0.0894,0.0904,0.0919,0.089,0.0895,0.0882,0.0882,0.0837,0.0833,0.0899,0.0898,0.0898,0,0.0416,0.0425,0.0481,0.0495,0.0519,0.0542,0.0561,0.061,0.0628,0.0674,0.068,0.0711,0.0738,0.078,0.0822,0.0853,0.0869,0.0851,0.0874,0.086,0.0867,0.0865,0.0866,0.0845,0.0844,0.0843,0.0842,0,0.0366,0.0387,0.0414,0.0447,0.0469,0.0497,0.0528,0.0538,0.0593,0.0612,0.064,0.0661,0.0703,0.0733,0.077,0.0796,0.0828,0.0835,0.0834,0.082,0.0802,0.081,0.0874,0.0835,0.0836,0.0837,0.0837,0.0837,0.0322,0.0332,0.0373,0.04,0.0428,0.0456,0.047,0.0505,0.053,0.0567,0.0595,0.0621,0.0661,0.0714,0.0738,0.076,0.0774,0.0773,0.0773,0.0771,0.0765,0.08,0.0767,0.0767,0.0767,0.0768,0.0768,0,0.0273,0.0302,0.0327,0.0369,0.039,0.0419,0.0454,0.047,0.0493,0.0527,0.0553,0.0585,0.0615,0.0658,0.0691,0.07,0.0715,0.0706,0.0705,0.0711,0.0752,0.0748,0.0693,0.0693,0.0693,0.0693,0.0693,0.0693,0.025,0.0267,0.0294,0.0325,0.0354,0.038,0.0398,0.0424,0.0451,0.0485,0.051,0.0538,0.0576,0.0612,0.064,0.0652,0.0661,0.0648,0.0664,0.0701,0.0708,0.0715,0.0712,0.065,0.065,0.0622,0.0621,0.0621]},{"header":{"parameterUnit":"m.s-1","parameterCategory":1,"la1":30.2991,"la2":30.254,"lo1":-89.0895,"lo2":-89.0444,"dy":0.0017,"dx":0.0017,"nx":28,"ny":28,"refTime":"2025-08-27T03:00:00:Z","depth":0,"parameterNumber":3,"parameterNumberName":"V-component_of_WINDS"},"data":[0,0,0,0,0,0,0,0,0,0,0,0,0,0,0,0,0,0,0,0,0,0,0,0,0,0,0,0,0,0,0,0,0,0,0,0,0,0,0,0,0,0,0,0,0,0,0,0,0,0,0,0,0,0,0,0,0,0,1.2417,1.2417,0,1.2353,1.2352,1.2351,1.2326,1.2326,1.2326,1.2326,1.2257,1.2255,1.2253,0,0,0,0,0,0,0,0,0,0,0,0,0,1.2516,1.2514,1.2417,1.2417,1.2416,1.2353,1.2352,1.2351,1.2326,1.2326,1.2326,1.2327,1.2258,1.2255,1.2253,0,0,0,0,0,0,0,0,0,0,0,0,0,1.2464,1.2514,1.2418,1.2396,1.2393,1.2353,1.2352,1.2351,1.2326,1.2326,1.2326,1.2327,1.2258,1.2255,1.2252,1.2228,0,0,1.2243,1.2242,0,0,0,0,0,0,0,0,1.2467,1.2461,1.24,1.2397,1.2394,1.2348,1.2361,1.231,1.2326,1.2351,1.2326,1.2327,1.2287,1.2281,1.2268,1.2225,1.2222,1.2243,1.2241,1.224,1.2239,0,0,0,0,0,0,0,1.2471,1.2463,1.2392,1.2399,1.2396,1.2388,1.2381,1.2351,1.2318,1.2349,1.2347,1.234,1.2285,1.2272,1.2267,1.2221,1.2243,1.224,1.2238,1.2237,1.2153,1.2153,0,0,0,0,0,0,1.2479,1.2467,1.2394,1.239,1.2432,1.2386,1.2378,1.2362,1.2318,1.2312,1.234,1.2339,1.2277,1.227,1.2264,1.2232,1.224,1.2237,1.2235,1.2154,1.2153,1.2153,0,0,0,0,0,0,1.2481,1.2472,1.2396,1.2428,1.2417,1.2384,1.2366,1.2361,1.2347,1.2311,1.2305,1.2332,1.2277,1.2268,1.2237,1.2229,1.2236,1.2233,1.2154,1.2153,1.2153,1.2168,0,0,0,0,0,0,1.2484,1.2473,1.2465,1.2428,1.2416,1.2372,1.2366,1.2359,1.2342,1.2341,1.2303,1.2296,1.2276,1.2242,1.2234,1.2225,1.223,1.2155,1.2154,1.2153,1.2168,1.2168,1.2168,0,0,0,0,0,1.2487,1.2471,1.2464,1.2456,1.2404,1.2371,1.2364,1.2342,1.2342,1.2332,1.2309,1.2298,1.2232,1.2239,1.223,1.222,1.2155,1.2154,1.2153,1.2168,1.2168,1.2168,0,0,0,0,0,0,1.2507,1.2466,1.2458,1.2429,1.2404,1.2367,1.2354,1.2343,1.2317,1.2316,1.2289,1.228,1.2251,1.2233,1.2242,1.2194,1.2192,1.219,1.2207,1.2207,1.2207,1.2211,1.2228,0,0,0,0,0,1.2508,1.2486,1.2451,1.2429,1.2417,1.2388,1.2373,1.2358,1.233,1.2319,1.2294,1.2266,1.2239,1.2222,1.2195,1.2166,1.2156,1.2155,1.2155,1.2155,1.2152,1.2134,1.2133,1.215,1.215,1.215,0,0,1.251,1.2485,1.2472,1.2432,1.2411,1.2387,1.2379,1.2354,1.2336,1.2315,1.2284,1.2265,1.2232,1.2202,1.2187,1.2185,1.2146,1.2153,1.2154,1.2151,1.2133,1.2131,1.213,1.2149,1.2149,1.2149,0,0,1.2501,1.248,1.2459,1.2439,1.2407,1.2388,1.2383,1.2347,1.2334,1.2303,1.2286,1.2263,1.2218,1.2195,1.2178,1.216,1.2148,1.2152,1.2152,1.2134,1.2133,1.2132,1.2124,1.2122,1.215,1.215,1.215,0,1.2507,1.2472,1.245,1.2426,1.2409,1.2389,1.2367,1.2348,1.2308,1.2296,1.2295,1.2237,1.2214,1.2177,1.2173,1.216,1.2152,1.2156,1.2135,1.2134,1.2132,1.2125,1.2122,1.2151,1.2151,1.2151,1.2151,0,1.248,1.2456,1.2443,1.2406,1.2387,1.2364,1.2338,1.2321,1.2308,1.2289,1.2257,1.2228,1.2195,1.2186,1.2172,1.2147,1.2146,1.2141,1.2138,1.2131,1.2124,1.2121,1.2152,1.2152,1.2151,1.2151,0,0,1.2482,1.2433,1.2429,1.2412,1.2375,1.2355,1.2331,1.23,1.2285,1.2259,1.2237,1.2199,1.2193,1.2173,1.2157,1.2142,1.2129,1.2138,1.2137,1.2136,1.2098,1.2102,1.2099,1.2121,1.2121,1.212,1.21,0,1.2467,1.2424,1.2404,1.2369,1.2346,1.2327,1.2306,1.2281,1.2262,1.2238,1.2217,1.219,1.2185,1.2173,1.2158,1.2134,1.2121,1.2135,1.2099,1.2098,1.2107,1.2095,1.2099,1.2082,1.2097,1.2097,1.2096,0,1.2445,1.2419,1.2382,1.2348,1.2337,1.2319,1.2288,1.2266,1.2237,1.2224,1.2202,1.2186,1.2159,1.216,1.2121,1.2131,1.2115,1.2101,1.21,1.2095,1.2096,1.2088,1.2076,1.2073,1.2092,1.2092,1.2092,0,1.2448,1.2404,1.2377,1.2363,1.2322,1.2309,1.2292,1.2262,1.2245,1.2217,1.2205,1.2175,1.2158,1.2134,1.211,1.2113,1.2073,1.2072,1.2061,1.2061,1.2052,1.2053,1.2036,1.2044,1.2044,1.2044,1.2044,0,1.2434,1.2412,1.2378,1.236,1.2335,1.2311,1.2286,1.2267,1.2241,1.2219,1.2201,1.218,1.2151,1.2126,1.2107,1.2077,1.207,1.2058,1.2053,1.2059,1.206,1.2047,1.2047,1.2043,1.2044,1.2044,1.2044,0,1.2433,1.2409,1.2378,1.2342,1.2332,1.2315,1.2284,1.2266,1.2246,1.2219,1.2211,1.2179,1.2149,1.2124,1.2084,1.2071,1.204,1.2034,1.205,1.2047,1.2037,1.2038,1.2009,1.2004,1.2017,1.2017,1.2017,0,1.2425,1.2408,1.237,1.2354,1.2337,1.2312,1.2294,1.227,1.2251,1.2216,1.2202,1.2171,1.2144,1.2097,1.207,1.2039,1.2032,1.2025,1.2027,1.2034,1.2031,1.2032,1.2029,1.2024,1.2024,1.2024,1.2024,0,1.2413,1.2402,1.2377,1.2347,1.2326,1.2302,1.2277,1.2265,1.2235,1.2215,1.2185,1.2165,1.2124,1.2093,1.2059,1.204,1.2026,1.2024,1.2019,1.2024,1.2034,1.2027,1.2048,1.2024,1.2024,1.2024,1.2024,1.2024,1.2407,1.239,1.2361,1.2334,1.2313,1.2289,1.2271,1.2249,1.2223,1.2189,1.2176,1.2144,1.2114,1.2068,1.2048,1.2022,1.202,1.2014,1.2012,1.2011,1.2011,1.2039,1.2016,1.2016,1.2016,1.2016,1.2016,0,1.2393,1.2373,1.2348,1.2314,1.2292,1.2283,1.2254,1.2236,1.2209,1.2183,1.2157,1.2121,1.2091,1.2062,1.203,1.2014,1.2008,1.2007,1.2007,1.2002,1.2015,1.2022,1.2013,1.2013,1.2013,1.2013,1.2013,1.2013,1.2383,1.2354,1.234,1.23,1.228,1.225,1.2234,1.2212,1.2191,1.2152,1.2127,1.2108,1.208,1.2046,1.2017,1.2009,1.1998,1.1998,1.1988,1.2001,1.2002,1.2002,1.2008,1.1996,1.1996,1.1977,1.1977,1.1977]}]]